Location: Palomar Mountain Lodge
(33.3110°N, 116.8495°W)
Time: 08:14:36
(UTC-07:00)

Envisat - Pass Details

Date: 14 June 2018
Orbit: 764 x 766 km, 98.2° (Epoch: 20 June)

Event Time Altitude Azimuth Distance (km) Brightness Sun altitude
Rises 20:19:12 0° 173° (S) 3,212 5.8 -4.6°
Reaches altitude 10° 20:21:30 10° 176° (S) 2,289 5.1 -5.0°
Maximum altitude 20:26:31 66° 259° (WSW) 831 3.4 -5.9°
Drops below altitude 10° 20:31:34 10° 341° (NNW) 2,302 6.4 -6.8°
Sets 20:33:54 0° 345° (NNW) 3,232 7.1 -7.2°
